www.pogodaiklimat.ru

Погода и климат >> Архив погоды >> Россия >> Приморский край >> Посьет


АРХИВ ПОГОДЫ в Посьете

Время (UTC), дата Ветер
(напр.,м/с)
 
Видим.   Явления Облачность Т
(С)
Тd
(С)
f
(%)
Тe
(С)
Тes
(С)
Комфортность P
(гПа)
Po
(гПа)
Тmin
(С)
Tmax
(С)
R
(мм)
R24
(мм)
S
(см)
06 17.02 З 7-13
{16}
20 км ясно +3.8 -14.5 25 -1 0 1015.6 1010.7
09 17.02 З 6-11
{16}
20 км ясно +2.0 -15.0 27 -3 -3 1016.3 1011.4 +4.0
12 17.02 З 5-11
{13}
20 км ясно +0.4 -14.8 31 -5 -5 1018.7 1013.7
15 17.02 З 10-14
{15}
20 км ясно 0.0 -15.7 30 -7 -7 1020.3 1015.3
18 17.02 З 4
{15}
20 км ясно -0.9 -14.6 35 -6 -6 1022.0 1017.0
21 17.02 штиль 0 20 км ясно -2.6 -14.9 38 -3 -3 1023.0 1018.0 -2.7
00 18.02 СЗ 1 20 км ясно -0.9 -15.2 33 -2 +1 1024.6 1019.6
03 18.02 З 3 20 км ясно +5.4 -16.4 19 +3 +10 1024.0 1019.1
06 18.02 ЮЗ 5-10
{10}
20 км 3/0
[Cs]
+4.2 -4.6 53 -0 +2 1021.3 1016.3
09 18.02 ЮЗ 5-10
{13}
20 км 3/0
[Ac lent]
+1.1 -3.7 70 -4 -4 1021.4 1016.5 +6.8
12 18.02 ЮЗ 4
{10}
20 км ясно -0.2 -2.7 83 -6 -6 1022.1 1017.1
15 18.02 СВ 2 20 км 10/0
[Cs]
-0.7 -3.1 84 -4 -4 1021.9 1016.9
18 18.02 штиль 0 20 км ясно -1.3 -3.8 83 -2 -2 1021.6 1016.6
21 18.02 штиль 0 20 км 10/0
[Cs]
-2.1 -5.1 80 -3 -3 1020.3 1015.3 -2.6
00 19.02 СВ 3 20 км 10/0
[As op]
-0.9 -4.1 79 -6 -5 1020.1 1015.1
03 19.02 ЮЗ 1 20 км 10/0
[As op]
+0.7 -3.4 74 -1 +1 1018.4 1013.4
06 19.02 З 1 20 км 10/0
[As op]
+1.7 -1.6 79 0 +1 1016.0 1011.1
09 19.02 СВ 1 10 км слаб. снег 10/0
[As trans]
+0.3 -1.3 89 -2 -2 1015.0 1010.1 +2.0 0.0
12 19.02 З 2 10 км слаб. снег 10/0
[As trans]
-0.2 -1.0 94 -4 -4 1016.2 1011.3
15 19.02 З 4 10 км слаб. снег 10/0
[As trans]
-0.6 -1.0 97 -6 -6 1016.6 1011.6
18 19.02 З 5 10 км {снег} 8/0
[Cs]
-0.3 -2.7 84 -6 -6 1016.6 1011.7
21 19.02 З 5
{10}
10 км 9/0
[As op]
-1.0 -4.1 79 -7 -7 1017.0 1012.0 -1.4 2 4
00 20.02 З 4 20 км 10/0
[As trans]
+0.1 -3.7 76 -5 -4 1019.2 1014.2 -1.6
03 20.02 З 4 20 км 10/0
[Cs]
+2.2 -1.8 75 -3 +2 1019.5 1014.6
06 20.02 З 4
{11}
20 км 6/0
[Cs]
+4.5 -4.3 53 +1 +3 1018.9 1014.0
09 20.02 З 6-11
{11}
20 км 10/0
[Cs]
+2.6 -4.7 59 -3 -3 1020.4 1015.5 +4.6
12 20.02 З 6-11
{12}
20 км 5/0
[Cs]
+1.1 -6.2 58 -5 -5 1022.6 1017.7
15 20.02 З 5
{11}
20 км 5/0
[Cs]
+0.4 -6.4 60 -5 -5 1024.1 1019.1
18 20.02 З 5
{12}
20 км 5/0
[Cs]
-0.8 -7.1 62 -7 -7 1024.8 1019.7
21 20.02 З 2
{11}
20 км 3/0
[Cs]
-2.9 -8.2 67 -7 -7 1024.8 1019.8 -2.4
00 21.02 З 7-11
{12}
20 км ясно 0.0 -8.0 55 -6 -6 1024.7 1019.7 -3.2
03 21.02 З 5
{14}
20 км ясно +5.4 -8.6 36 +2 +6 1023.6 1018.7
06 21.02 З 5
{12}
20 км ясно +7.4 -9.0 30 +4 +7 1021.0 1016.1
09 21.02 З 3
{11}
20 км ясно +4.5 -8.7 38 +2 +2 1020.2 1015.3 +8.2
12 21.02 З 3 20 км ясно +2.2 -9.7 41 -1 -1 1021.1 1016.1
15 21.02 З 4 20 км ясно +3.5 -10.9 34 -0 -0 1021.3 1016.4
18 21.02 З 5
{10}
20 км 3/0
[Cs]
+2.9 -11.4 34 -1 -1 1021.6 1016.7
21 21.02 З 6
{11}
20 км 5/0
[Cs]
+1.1 -10.0 43 -4 -4 1021.2 1016.2 +0.5
00 22.02 З 2
{11}
20 км 8/0
[Ac trans Cc]
+1.9 -10.6 39 -0 +2 1022.4 1017.5
03 22.02 З 7-10
{12}
20 км ясно +6.6 -11.6 26 +3 +5 1021.3 1016.4
06 22.02 З 5-10
{11}
20 км ясно +9.3 -11.8 21 +7 +9 1018.2 1013.4
09 22.02 З 4
{12}
20 км ясно +7.2 -13.8 21 +5 +5 1017.8 1013.0 +9.5
12 22.02 З 2 20 км ясно +4.5 -14.4 24 +3 +3 1020.2 1015.3
15 22.02 З 1
{10}
20 км ясно +3.7 -14.0 26 +3 +3 1021.8 1016.9
18 22.02 З 2 20 км ясно +1.7 -13.2 32 -1 -1 1023.0 1018.0
21 22.02 СЗ 3 20 км ясно +0.3 -13.9 34 -3 -3 1023.9 1018.9 +0.8
00 23.02 З 3 20 км ясно +0.8 -11.0 41 -3 -0 1025.3 1020.3 -0.3
03 23.02 З 4 20 км ясно +6.7 -12.5 24 +4 +10 1023.8 1018.9
06 23.02 З 6
{11}
20 км ясно +8.1 -12.1 22 +5 +7 1021.0 1016.2
09 23.02 ЮЗ 2
{10}
20 км ясно +1.7 -3.4 69 -1 -1 1021.1 1016.1 +9.0
12 23.02 ЮЗ 1 20 км ясно -0.1 -3.3 79 -2 -2 1021.2 1016.2
15 23.02 ЮЗ 1 20 км ясно -0.9 -4.3 78 -3 -3 1020.0 1015.0
18 23.02 штиль 0 20 км ясно -1.5 -4.4 81 -3 -3 1018.2 1013.2
21 23.02 З 1 20 км 3/0
[Cs]
-4.8 -6.6 87 -7 -7 1016.9 1011.8 -4.8
00 24.02 штиль 0 20 км 5/0
[Cs]
-4.3 -6.4 85 -5 -2 1016.8 1011.7 -5.0
03 24.02 ЮЗ 1 20 км 5/0
[Cs]
+1.5 -4.7 63 0 +9 1014.3 1009.4

 

Местоположение метеостанции Посьет (Приморский край, Россия): широта 42.65 долгота 130.80 высота над уровнем моря 39 м.

В архиве по умолчанию представлена погода в Посьете за последнюю неделю. Архивные данные за месяц целиком и за предыдущие месяцы, начиная с января 2011 года, Вы можете получить, выбрав интересующий диапазон дат из раскрывающегося списка и нажав кнопку "Ввод!".


*Определитесь, кто Вы:
робот инопланетянин человек

Внимание! Время в таблицах - всемирное. Для получения местного времени необходимо прибавить поправку, которая равна 10 ч.

Смотрите также архив погоды в соседних городах и на ближайших метеорологических станциях:

Погода в Гамове (Приморский край, Россия) (36 км)
Погода в Сонбонге (КНДР) (49 км)
Погода в Барабаше (Приморский край, Россия) (78 км)
Погода на Мысе Назимова (Приморский край, Россия) (100 км)
Погода в Владивостоке (Приморский край, Россия) (104 км)
Погода в Яньцзи (Гирин, Китай) (109 км)
Погода в Чхонджине (КНДР) (127 км)
Погода в Полтавке (Приморский край, Россия) (159 км)
Погода в Тимирязевском (Приморский край, Россия) (163 км)
Погода в Многоудобном (Приморский край, Россия) (164 км)

Пояснения к столбцам:

Ветер - указаны скорость ветра в м/с - средняя за 10 мин, порывы в срок и между сроками (в фигурных скобках) и направление, откуда дует ветер: С - северный, СВ - северо-восточный, В - восточный, ЮВ - юго-восточный, Ю - южный, ЮЗ - юго-западный, З - западный, СЗ - северо-западный.
Видимость - горизонтальная дальность видимости в метрах или километрах. При видимости от 1 до 10 км при отсутствии осадков обычно наблюдается дымка, при ухудшении видимости до 1 км и менее - туман. В сухую погоду видимость может ухудшаться дымом, пылью или мглою.
Явления - указаны атмосферные явления, наблюдавшиеся в срок или в последний час перед сроком; фигурными скобками обозначены явления, наблюдавшиеся между сроками (за 1-3 часа до срока); квадратными скобками обозначены град или гололедные отложения с указанием их диаметра в мм.
Облачность - указаны через наклонную черту общая и нижняя облачность в баллах и высота нижней границы облаков в метрах; квадратными скобками обозначены формы облаков: Ci - перистые, Cs - перисто-слоистые, Cc - перисто-кучевые, Ac - высококучевые, As - высокослоистые, Sc - слоисто-кучевые, Ns - слоисто-дождевые, Cu - кучевые, Cb - кучево-дождевые. Подробнее классификацию облаков см. в Атласе облаков (PDF).
T - Температура воздуха - температура, измеренная на высоте 2 м над землей.
Td - Температура точки росы - температура, при понижении до которой содержащийся в воздухе водяной пар достигнет насыщения.
f - Относительная влажность воздуха - влажноcть воздуха, измеренная на высоте 2 м над землей.
Te - Эффективная температура - температура, которую ощущает одетый по сезону человек в тени. Характеристика душности погоды. При расчете учитывается влияние влажности воздуха и скорости ветра на теплоощущения человека.
Tes - Эффективная температура на солнце - температура, которую ощущает человек, с поправкой на солнечный нагрев. Характеристика знойности погоды. Зависит от высоты солнца над горизонтом, облачности и скорости ветра. Ночью, в пасмурную погоду, а также при ветре 12 м/с и более поправка равна нулю.
P - Атмосферное давление - приведенное к уровню моря атмосферное давление.
Po - Атмосферное давление - измеренное на уровне метеостанции атмосферное давление.
Tmin - Минимальная температура - минимум температуры воздуха на высоте 2 м над землей.
Tmax - Максимальная температура - максимум температуры воздуха на высоте 2 м над землей.
R - Количество осадков - Количество выпавших осадков за период времени, мм. При наведении курсора мыши на число - период времени, за который выпало указанное количество осадков.
R24 - Количество осадков - Количество выпавших осадков за 24 часа, мм.
S - Снежный покров - Высота снежного покрова, см. При наведении курсора мыши на число - состояние снежного покрова и степень покрытия местности в баллах.